Regional Weather Roundup
Issued by NWS

Home | Current Version | Previous Version | Text Only | Print | Product List | Glossary On
Versions: 1 2 3 4 5 6 7 8 9 10 11 12 13 14 15 16 17 18 19 20 21 22 23 24 25 26 27 28 29 30 31 32 33 34 35 36 37 38 39 40 41 42 43 44 45 46 47 48 49 50
000
ASCA44 KEWX 100820
RWRMX

LATIN AMERICA AND CARIBBEAN REGIONAL WEATHER ROUNDUP
NATIONAL WEATHER SERVICE AUSTIN/SAN ANTONIO TX
200 AM CST WED FEB 10 2016

NOTE: "FAIR" INDICATED FEW OR NO CLOUDS BELOW 12,000 FEET WITH NO
SIGNIFICANT WEATHER AND/OR OBSTRUCTIONS TO VISIBILITY.

BAJA CALIFORNIA

CITY           SKY/WX    TMP DP  RH WIND       PRES   REMARKS
TIJUANA        CLEAR     63  28  27 CALM      30.14S

NORTHWESTERN MEXICO

CITY           SKY/WX    TMP DP  RH WIND       PRES   REMARKS
HERMOSILLO     CLEAR     57  36  44 CALM      30.07R

NORTHEASTERN MEXICO

CITY           SKY/WX    TMP DP  RH WIND       PRES   REMARKS
MONTERREY      CLEAR     46  23  39 W5        30.33F WCI  44

WESTERN MEXICO

CITY           SKY/WX    TMP DP  RH WIND       PRES   REMARKS
GUADALAJARA    MOCLDY    46  36  66 CALM      30.29S
MAZATLAN       PTCLDY    64  63  94 N5        30.03S
P. VALLARTA    MOCLDY    70  66  88 CALM      30.01F
ZACATECAS      CLOUDY    46  27  46 CALM      30.40R

CENTRAL MEXICO

CITY           SKY/WX    TMP DP  RH WIND       PRES   REMARKS
MEXICO CITY    CLOUDY    48  36  61 E2        30.42F
S. LUIS POTOSI PTCLDY    37  32  81 CALM      30.44F
TOLUCA         CLOUDY    46  37  71 W3        30.55R

SOUTHERN MEXICO

CITY           SKY/WX    TMP DP  RH WIND       PRES   REMARKS
ACAPULCO       MOCLDY    77  72  83 NE3       29.98F
VERACRUZ         N/A    N/A N/A N/A MISG        N/A

YUCATAN PENINSULA

CITY           SKY/WX    TMP DP  RH WIND       PRES   REMARKS
CANCUN         PTCLDY    57  55  94 CALM      30.21F
COZUMEL        CLEAR     63  55  77 NW14      30.22F
MERIDA         MOCLDY    59  52  77 CALM      30.25F
TAPACHULA      PTCLDY    75  66  73 CALM      29.95F

CENTRAL AMERICA

CITY           SKY/WX    TMP DP  RH WIND       PRES   REMARKS

CARIBBEAN

CITY           SKY/WX    TMP DP  RH WIND       PRES   REMARKS
ARUBA          PTCLDY    79  72  78 E29       29.89F HAZE
CURACAO        MOCLDY    79  73  83 E17       29.94S
KINGSTON       PTCLDY    77  70  78 N14       29.97F
SAN JUAN       PTCLDY    75  70  83 CALM      30.06S
SANTO DOMINGO  PTCLDY    72  70  94 NE5       30.00S
ST. CROIX      PTCLDY    79  72  78 E12       30.05
ST. MAARTEN    MOCLDY    77  72  83 E10       30.06S
ST. THOMAS     MOCLDY    79  72  78 E9        30.05

$$




USA.gov is the U.S. government's official web portal to all federal, state and local government web resources and services.